Home   Weather   Eferding   Past weeks

Flag for Austria Past Weather in Eferding, Upper Austria, Austria — Yesterday and Last 2 Weeks

Now
38 °F

Light rain. Low clouds.


Feels Like: N/A
Forecast: 36 / 54 °F
Wind: N/A

Location: Linz / Hoersching-Flughafen

Current Time: Apr 28, 2017 at 12:25:09 pm

Latest Report: Apr 28, 2017 at 11:00 am


Visibility: 12 mi

Pressure: 29.85 "Hg

Humidity: 92%

Dew Point: 36 °F

Location of EferdingLocation

Past Weather in Eferding — Graph

°F

Eferding Temperature Yesterday

Maximum temperature yesterday: 43 °F (at 3:00 pm)
Minimum temperature yesterday: 40 °F (at 11:00 pm)
Average temperature yesterday: 41 °F

High & Low Weather Summary for the Past Weeks

 TemperatureHumidityPressure
High64 °F (Apr 25, 3:00 pm)97% (Apr 28, 5:00 am)30.56 "Hg (Apr 28, 5:00 am)
Low30 °F (Apr 20, 5:00 am)39% (Apr 24, 4:00 pm)29.70 "Hg (Apr 25, 5:00 pm)
Average44 °F73%30.08 "Hg
* Reported Apr 13 11:00 am — Apr 28 11:00 am, Eferding, Weather by CustomWeather, © 2017

Note: Actual official high and low records may vary slightly from our data, if they occured in-between our weather recording intervals... More about our weather records

Advertising

Eferding Weather History for the Previous 24 Hours

Scroll right to see more
 ConditionsComfort  
Time TempWeatherWind HumidityBarometerVisibility
11:00 am
Fri, Apr 28
38 °FLight rain. Low clouds.N/A92%29.85 "Hg12 mi
10:00 am37 °FLight rain. Low clouds.N/A92%29.85 "Hg10 mi
9:00 am36 °FLight rain. Low clouds.N/A95%29.87 "Hg5 mi
8:00 am34 °FLight rain. Low clouds.N/A96%29.87 "Hg6 mi
7:00 am33 °FLight rain. Low clouds.N/A97%29.87 "Hg5 mi
6:00 am33 °FRain. Low clouds.N/A97%29.86 "Hg4 mi
5:00 am32 °FRain. Low clouds.N/A97%29.87 "Hg4 mi
4:00 am33 °FLow clouds.N/A96%29.89 "Hg3 mi
3:00 am34 °FHeavy rain. Low clouds.5 mph95%29.92 "Hg3 mi
2:00 am38 °FHeavy rain. Overcast.3 mph92%29.90 "Hg3 mi
1:00 am39 °FLight rain. Overcast.N/A94%29.89 "Hg9 mi
12:00 am39 °FLight rain. Overcast.N/A94%29.92 "Hg9 mi
11:00 pm
Thu, Apr 27
40 °FLight rain. Overcast.N/A91%29.93 "Hg8 mi
10:00 pm40 °FLight rain. Low clouds.N/A91%29.96 "Hg7 mi
9:00 pm41 °FHeavy rain. Low clouds.N/A92%29.96 "Hg4 mi
8:00 pm41 °FLight rain. Low clouds.N/A90%29.95 "Hg9 mi
7:00 pm42 °FLight rain. Low clouds.N/A92%29.95 "Hg6 mi
6:00 pm42 °FLight rain. Low clouds.N/A91%29.96 "Hg4 mi
5:00 pm42 °FLow clouds.N/A93%29.97 "Hg6 mi
4:00 pm43 °FOvercast.N/A86%29.97 "Hg4 mi
3:00 pm43 °FOvercast.N/A86%29.97 "Hg25 mi
2:00 pm43 °FDrizzle. Overcast.N/A87%29.96 "Hg14 mi
1:00 pm42 °FLight rain. Overcast.3 mph86%29.97 "Hg11 mi
12:00 pm42 °FLow clouds.N/A86%29.97 "Hg28 mi
Weather by CustomWeather, © 2017

See weather overviewHow to use our weather pages